GW1821 Weather Reports


time (UTC)temp
C
wind
direction
speed
KPH
gust
KPH
rain 1hr
cm
rain 24hr
cm
rain mn
cm
humidity
%
barometer
mb
20260504081704 14 184 6.4 14.5 0.00 0.00 0.00 46 994.5
20260504081201 14 134 6.4 14.5 0.00 0.00 0.00 46 994.6
20260504080658 14 180 6.4 17.7 0.00 0.00 0.00 46 994.7
20260504080152 14 178 6.4 17.7 0.00 0.00 0.00 47 994.8
20260504060220 13 202 4.8 12.9 0.00 0.00 0.00 50 997.1
20260504050601 12 167 3.2 8.0 0.00 0.00 0.00 53 998.3
20260504045544 12 171 1.6 9.7 0.00 0.00 0.00 54 998.5
20260504045046 12 173 1.6 9.7 0.00 0.00 0.00 54 998.6
20260504044539 12 172 1.6 8.0 0.00 0.00 0.00 54 998.6
20260504044035 12 173 3.2 8.0 0.00 0.00 0.00 54 998.7
20260504043809 12 178 3.2 9.7 0.00 0.00 0.00 54 998.9
20260504043034 12 180 1.6 9.7 0.00 0.00 0.00 55 998.9
20260504042751 12 184 1.6 6.4 0.00 0.00 0.00 55 999.0
20260504042029 12 182 1.6 6.4 0.00 0.00 0.00 55 999.1
20260504041525 12 189 1.6 6.4 0.00 0.00 0.00 55 999.2
20260504041019 12 190 1.6 6.4 0.00 0.00 0.00 55 999.4
20260504040519 12 190 1.6 6.4 0.00 0.00 0.00 55 999.5
20260504040020 12 205 1.6 4.8 0.00 0.00 0.00 54 999.6
20260504035508 12 219 1.6 4.8 0.00 0.00 0.00 53 999.7
20260504035006 12 221 0.0 3.2 0.00 0.00 0.00 53 1000.0
20260504035000 12 221 0.0 3.2 0.00 0.00 0.00 52 1000.0
20260504034447 12 221 0.0 3.2 0.00 0.00 0.00 52 1000.1
20260504033440 12 221 0.0 3.2 0.00 0.00 0.00 52 1000.2
20260504032937 13 221 0.0 3.2 0.00 0.00 0.00 51 1000.3
20260504032923 13 233 0.0 3.2 0.00 0.00 0.00 51 1000.4
20260504031908 13 233 0.0 1.6 0.00 0.00 0.00 49 1000.4
20260504031405 13 233 0.0 1.6 0.00 0.00 0.00 49 1000.5
20260504031125 13 233 0.0 1.6 0.00 0.00 0.00 49 1000.6
20260504030857 13 233 0.0 3.2 0.00 0.00 0.00 48 1000.7
20260504025853 13 233 0.0 3.2 0.00 0.00 0.00 48 1000.7
20260504025617 14 233 1.6 3.2 0.00 0.00 0.00 49 1000.8
20260504024839 14 233 1.6 3.2 0.00 0.00 0.00 48 1000.8
20260504024533 14 233 0.0 3.2 0.00 0.00 0.00 47 1000.8
20260504023811 14 233 1.6 6.4 0.00 0.00 0.00 47 1000.9
20260504023308 15 233 1.6 6.4 0.00 0.00 0.00 45 1000.9
20260504022804 15 230 1.6 6.4 0.00 0.00 0.00 46 1001.1
20260504022304 15 230 1.6 6.4 0.00 0.00 0.00 43 1001.1
20260504021805 15 229 1.6 6.4 0.00 0.00 0.00 43 1001.1
20260504021249 15 229 1.6 4.8 0.00 0.00 0.00 45 1001.1
20260504020750 15 230 1.6 4.8 0.00 0.00 0.00 44 1001.1
20260504020246 15 230 0.0 3.2 0.00 0.00 0.00 45 1001.0
20260504015723 16 231 0.0 3.2 0.00 0.00 0.00 42 1001.0
20260504015225 16 231 0.0 3.2 0.00 0.00 0.00 43 1001.0
20260504014718 16 230 0.0 3.2 0.00 0.00 0.00 41 1001.0
20260504014440 17 230 0.0 4.8 0.00 0.00 0.00 40 1001.0
20260504013706 17 230 0.0 4.8 0.00 0.00 0.00 41 1001.0
20260504013206 17 230 0.0 4.8 0.00 0.00 0.00 40 1001.0
20260504012641 18 231 1.6 4.8 0.00 0.00 0.00 39 1001.1
20260504012623 18 230 1.6 6.4 0.00 0.00 0.00 34 1001.1
20260504011641 18 230 1.6 6.4 0.00 0.00 0.00 34 1001.1
20260504011400 18 229 3.2 6.4 0.00 0.00 0.00 32 1001.1
20260504010639 19 251 3.2 6.4 0.00 0.00 0.00 32 1001.1
20260504010133 19 255 3.2 11.3 0.00 0.00 0.00 32 1001.1
20260504005604 19 252 4.8 11.3 0.00 0.00 0.00 32 1001.2
20260504005334 19 255 4.8 14.5 0.00 0.00 0.00 31 1001.3
20260504004604 20 263 8.0 16.1 0.00 0.00 0.00 29 1001.2
20260504004047 20 258 8.0 16.1 0.00 0.00 0.00 30 1001.3
20260504003543 20 255 8.0 19.3 0.00 0.00 0.00 29 1001.3
20260504003040 20 216 8.0 19.3 0.00 0.00 0.00 29 1001.4
20260504002538 20 264 8.0 17.7 0.00 0.00 0.00 30 1001.4
20260504002036 20 224 6.4 17.7 0.00 0.00 0.00 32 1001.4
20260504001535 20 252 8.0 17.7 0.00 0.00 0.00 31 1001.5
20260504001254 20 292 6.4 19.3 0.00 0.00 0.00 32 1001.5
20260504000745 20 254 6.4 19.3 0.00 0.00 0.00 32 1001.5
20260504000027 20 271 8.0 19.3 0.00 0.00 0.00 30 1001.6
20260503235521 20 289 8.0 19.3 0.00 0.00 0.00 30 1001.5
20260503235017 21 269 8.0 19.3 0.00 0.00 0.00 29 1001.5
20260503234725 21 269 6.4 19.3 0.00 0.00 0.00 28 1001.4
20260503234006 21 277 8.0 19.3 0.00 0.00 0.00 30 1001.5
20260503233506 21 232 11.3 25.7 0.00 0.00 0.00 29 1001.6
20260503233006 21 263 9.7 25.7 0.00 0.00 0.00 29 1001.6
20260503232508 22 185 6.4 19.3 0.00 0.00 0.00 28 1001.6
20260503232003 22 301 6.4 17.7 0.00 0.00 0.00 27 1001.7
20260503231726 22 278 6.4 17.7 0.00 0.00 0.00 28 1001.6
20260503231002 22 215 6.4 12.9 0.00 0.00 0.00 27 1001.7
20260503230504 22 276 8.0 25.7 0.00 0.00 0.00 27 1001.7
20260503225957 22 306 11.3 25.7 0.00 0.00 0.00 29 1001.8
20260503225455 22 260 8.0 22.5 0.00 0.00 0.00 26 1001.8
20260503224954 22 280 6.4 16.1 0.00 0.00 0.00 27 1001.9
20260503224454 22 294 6.4 16.1 0.00 0.00 0.00 28 1001.9
20260503223948 22 252 6.4 17.7 0.00 0.00 0.00 29 1002.0
20260503223711 22 329 6.4 17.7 0.00 0.00 0.00 28 1001.9
20260503222947 22 340 4.8 14.5 0.00 0.00 0.00 27 1001.9
20260503222449 22 317 4.8 14.5 0.00 0.00 0.00 28 1002.0
20260503221946 22 19 6.4 19.3 0.00 0.00 0.00 27 1001.9
20260503221708 22 293 4.8 19.3 0.00 0.00 0.00 26 1002.0
20260503220941 22 329 4.8 17.7 0.00 0.00 0.00 28 1002.0
20260503220439 22 305 6.4 17.7 0.00 0.00 0.00 27 1002.1
20260503215937 22 283 8.0 17.7 0.00 0.00 0.00 27 1002.1
20260503215432 22 268 6.4 17.7 0.00 0.00 0.00 28 1002.1
20260503214934 22 176 6.4 14.5 0.00 0.00 0.00 27 1002.2
20260503214430 22 19 6.4 20.9 0.00 0.00 0.00 27 1002.3
20260503214206 22 331 6.4 20.9 0.00 0.00 0.00 29 1002.3
20260503213419 22 277 6.4 20.9 0.00 0.00 0.00 28 1002.3
20260503212923 21 251 6.4 20.9 0.00 0.00 0.00 29 1002.4
20260503212423 21 281 6.4 19.3 0.00 0.00 0.00 27 1002.5
20260503211919 21 307 8.0 20.9 0.00 0.00 0.00 28 1002.6
20260503211410 21 350 9.7 22.5 0.00 0.00 0.00 28 1002.7
20260503211133 21 305 8.0 22.5 0.00 0.00 0.00 29 1002.7
20260503210407 21 313 6.4 22.5 0.00 0.00 0.00 28 1002.7
20260503210133 21 288 6.4 17.7 0.00 0.00 0.00 30 1002.7
20260503205621 21 298 8.0 17.7 0.00 0.00 0.00 27 1002.8
20260503204858 21 324 8.0 20.9 0.00 0.00 0.00 28 1002.9
20260503204355 21 346 8.0 20.9 0.00 0.00 0.00 29 1002.9
20260503204343 21 330 8.0 20.9 0.00 0.00 0.00 28 1003.0
20260503203351 21 331 9.7 24.1 0.00 0.00 0.00 30 1003.0
20260503202849 21 309 8.0 24.1 0.00 0.00 0.00 28 1003.0
20260503202611 21 296 8.0 22.5 0.00 0.00 0.00 29 1003.1
20260503201848 21 317 8.0 24.1 0.00 0.00 0.00 28 1003.1
20260503201341 21 308 6.4 24.1 0.00 0.00 0.00 28 1003.1
20260503200837 21 293 6.4 17.7 0.00 0.00 0.00 29 1003.2
20260503200337 20 315 8.0 19.3 0.00 0.00 0.00 28 1003.2
20260503195834 20 321 9.7 20.9 0.00 0.00 0.00 30 1003.3
20260503195333 20 288 9.7 22.5 0.00 0.00 0.00 27 1003.3
20260503194828 21 289 8.0 22.5 0.00 0.00 0.00 28 1003.4
20260503194548 21 277 8.0 25.7 0.00 0.00 0.00 28 1003.2
20260503193826 21 310 8.0 25.7 0.00 0.00 0.00 29 1003.3
20260503193321 21 291 6.4 19.3 0.00 0.00 0.00 30 1003.3
20260503192821 21 285 8.0 29.0 0.00 0.00 0.00 29 1003.4
20260503192536 21 14 8.0 29.0 0.00 0.00 0.00 34 1003.4
20260503191817 20 335 9.7 30.6 0.00 0.00 0.00 34 1003.5
20260503191319 20 325 11.3 30.6 0.00 0.00 0.00 32 1003.6
20260503190817 20 306 9.7 19.3 0.00 0.00 0.00 34 1003.6
20260503190315 21 286 8.0 22.5 0.00 0.00 0.00 34 1003.6
20260503185813 21 309 8.0 22.5 0.00 0.00 0.00 36 1003.6
20260503185314 21 306 9.7 24.1 0.00 0.00 0.00 38 1003.8
20260503185032 20 337 9.7 24.1 0.00 0.00 0.00 37 1003.8
20260503184306 20 294 8.0 20.9 0.00 0.00 0.00 35 1003.6
20260503183807 21 294 8.0 25.7 0.00 0.00 0.00 34 1003.6
20260503183306 21 15 8.0 25.7 0.00 0.00 0.00 34 1003.8
20260503182806 20 5 6.4 24.1 0.00 0.00 0.00 34 1003.8
20260503182256 20 286 6.4 19.3 0.00 0.00 0.00 33 1003.8
20260503181754 20 255 8.0 27.4 0.00 0.00 0.00 33 1003.9
20260503181256 20 325 9.7 27.4 0.00 0.00 0.00 31 1004.1
20260503181017 20 289 11.3 27.4 0.00 0.00 0.00 40 1004.1
20260503180507 20 332 11.3 27.4 0.00 0.00 0.00 40 1004.1
20260503175751 20 323 9.7 25.7 0.00 0.00 0.00 39 1004.1
20260503175248 20 301 9.7 25.7 0.00 0.00 0.00 41 1003.9
20260503174748 20 331 11.3 24.1 0.00 0.00 0.00 39 1004.2
20260503174247 20 339 8.0 25.7 0.00 0.00 0.00 41 1004.2
20260503174008 20 0 6.4 20.9 0.00 0.00 0.00 41 1004.2
20260503173240 20 17 8.0 19.3 0.00 0.00 0.00 35 1004.2
20260503172740 20 22 9.7 20.9 0.00 0.00 0.00 44 1004.1
20260503172235 20 312 9.7 20.9 0.00 0.00 0.00 41 1004.1
20260503171733 20 310 9.7 20.9 0.00 0.00 0.00 40 1004.2
20260503171230 20 312 8.0 19.3 0.00 0.00 0.00 43 1004.3
20260503170730 20 355 8.0 19.3 0.00 0.00 0.00 43 1004.3
20260503170226 20 5 8.0 22.5 0.00 0.00 0.00 43 1004.3
20260503160159 18 5 9.7 22.5 0.00 0.00 0.00 50 1004.1
20260503150640 17 319 8.0 20.9 0.00 0.00 0.00 54 1004.0
20260503150418 16 21 8.0 19.3 0.00 0.00 0.00 53 1004.0
20260503140103 13 305 9.7 24.1 0.00 0.00 0.00 62 1003.6
20260503131053 11 340 6.4 19.3 0.00 0.00 0.00 70 1003.2
20260503130553 11 355 6.4 17.7 0.00 0.00 0.00 72 1003.1
20260503110339 7 211 0.0 0.0 0.00 0.00 0.00 82 1001.9